Weather in Verkhnekardail'sky

Russia / Volgograd Oblast     51°05′03″N   42°40′05″E
temp.,
°C
wind,
m/s
gust,
m/s
humid.,
%
clouds,
%
prec.,
mm/h
press.,
hPa
HPBL,
m
25 february, thu
thu2500:00−19s358799 0.0 1039143
03:00−17s478999 0.0 1037252
06:00−15ssw51095100 0.4 1034368
09:00−13ssw61194100 1.0 1031446
12:00−10sw71294100 0.9 1028513
15:00−8sw81494100 2.8 1024544
18:00−5sw81595100 1.0 1020505
21:00−2wsw61295100 2.3 1019370
26 february, fri
fri2600:00+1w61298100 0.1 1017332
03:00+2wnw410100100 0.1 1017234
06:00+1wnw51099100 0.6 1017283
09:00+1w48100100 0.7 1017223
12:00+1w511100100 0.3 1016265
15:00+2w512100100 0.4 1015289
18:00+2w61499100 0.0 1013405
21:00+2w615100100 0.3 1012402
27 february, sat
sat2700:00+2w71597100 0.1 1010474
03:00+1w61397100 0.1 1009465
06:00+1w51193100 0.0 1008402
09:00+1w61296100 0.1 1007500
12:00+1w611100100 0.1 1007560
15:00+1w612100100 0.2 1007567
18:00+1w61297100 0.1 1006568
21:00+1wnw71197100 0.3 1007610
28 february, sun
sun2800:000wnw6119597 0.1 1007558
03:00−2nnw699599 0.5 1008419
06:00−7nnw489481 0.1 1010294
09:00−8nnw479271 0.1 1012450
12:00−7nnw578993 0.0 1014527
15:00−7nnw578997 0.1 1015605
18:00−8nnw3893100 0.1 1017338
21:00−7nnw5889100 0.1 1020628
1 march, mon
mon100:00−9nnw379599 0.1 1021334
03:00−10nnw379593 0.1 1022216
06:00−11nnw369622 0.0 1024178
09:00−10n479236 0.0 1026437
12:00−8nnw468894 0.0 1027571
15:00−8nnw468897 0.0 1028601
18:00−9nw359394 0.0 1029130
21:00−9wnw349480 0.0 103081